BAW8525 EDDH-EGLL

Flight info

Callsign BAW8525
Flight time N/A
Altitude 40000
Route WSN5G/33 WSN N125 ITMIZ DCT ABNED L980 LOGAN
Aircraft A333/H-SDE3GHIJ2J3J5M1RVWXY/LB2D1

Departure

Time 2026-04-30 19:18
Airport Hamburg Helmut Schmidt Airport (EDDH)

Arrival

Time N/A
Airport London Heathrow Airport (EGLL)
Time Latitude Longitude Altitude Speed Heading
2026-04-30 18:13 53.63418 10.00335 48 ft 0 kts 101°
2026-04-30 18:25 53.63418 10.00334 48 ft 0 kts 101°
2026-04-30 19:03 53.63420 10.00311 48 ft 2 kts 101°
2026-04-30 19:04 53.63426 10.00262 47 ft 2 kts 104°
2026-04-30 19:04 53.63444 10.00223 46 ft 2 kts 157°
2026-04-30 19:05 53.63460 10.00217 47 ft 0 kts 176°
2026-04-30 19:06 53.63459 10.00217 46 ft 0 kts 176°
2026-04-30 19:06 53.63437 10.00219 46 ft 3 kts 175°
2026-04-30 19:07 53.63354 10.00229 45 ft 8 kts 175°
2026-04-30 19:07 53.63283 10.00230 44 ft 11 kts 197°
2026-04-30 19:08 53.63106 10.00225 42 ft 13 kts 182°
2026-04-30 19:08 53.62951 10.00097 42 ft 13 kts 211°
2026-04-30 19:08 53.62893 10.00047 41 ft 0 kts 205°
2026-04-30 19:09 53.62893 10.00046 41 ft 0 kts 205°
2026-04-30 19:10 53.62893 10.00047 41 ft 0 kts 205°
2026-04-30 19:12 53.62892 10.00046 41 ft 0 kts 205°
2026-04-30 19:12 53.62885 10.00040 40 ft 1 kts 208°
2026-04-30 19:13 53.62855 9.99989 40 ft 0 kts 237°
2026-04-30 19:16 53.62840 9.99944 39 ft 10 kts 240°
2026-04-30 19:16 53.62821 9.99801 37 ft 12 kts 306°
2026-04-30 19:16 53.62841 9.99773 36 ft 0 kts 328°
2026-04-30 19:17 53.62854 9.99760 36 ft 11 kts 329°
2026-04-30 19:18 53.63460 9.99231 39 ft 136 kts 332°
2026-04-30 19:18 53.65241 9.97765 1069 ft 192 kts 336°
2026-04-30 19:18 53.66432 9.96747 1954 ft 194 kts 334°
2026-04-30 19:19 53.67660 9.95673 2526 ft 208 kts 335°
2026-04-30 19:19 53.68980 9.94528 3206 ft 220 kts 335°
2026-04-30 19:19 53.71329 9.91300 4789 ft 235 kts 295°
2026-04-30 19:20 53.71630 9.88432 5039 ft 271 kts 266°
2026-04-30 19:20 53.71014 9.85346 5625 ft 285 kts 239°
2026-04-30 19:20 53.69462 9.79129 7371 ft 295 kts 250°
2026-04-30 19:21 53.68789 9.75810 8236 ft 300 kts 251°
2026-04-30 19:21 53.67456 9.69067 9903 ft 312 kts 252°
2026-04-30 19:22 53.66030 9.61844 9936 ft 319 kts 252°
2026-04-30 19:22 53.62881 9.52389 9994 ft 308 kts 233°
2026-04-30 19:23 53.59108 9.43601 9975 ft 307 kts 233°
2026-04-30 19:24 53.56543 9.37642 10456 ft 329 kts 233°
2026-04-30 19:24 53.55137 9.34384 10530 ft 362 kts 232°
2026-04-30 19:24 53.52635 9.26588 11751 ft 387 kts 249°
2026-04-30 19:25 53.49578 9.13792 13874 ft 396 kts 247°
2026-04-30 19:26 53.47486 9.05144 15111 ft 408 kts 247°
2026-04-30 19:26 53.45315 8.96205 16367 ft 417 kts 248°
2026-04-30 19:26 53.44217 8.91695 16997 ft 419 kts 248°
2026-04-30 19:27 53.41989 8.82574 18252 ft 427 kts 248°
2026-04-30 19:27 53.39735 8.73386 19508 ft 432 kts 248°
2026-04-30 19:28 53.38580 8.68689 20147 ft 434 kts 248°
2026-04-30 19:28 53.36268 8.59328 21419 ft 440 kts 248°
2026-04-30 19:29 53.33913 8.49827 22699 ft 443 kts 248°
2026-04-30 19:29 53.32868 8.45022 23320 ft 442 kts 258°
2026-04-30 19:30 53.32847 8.29754 25268 ft 439 kts 274°
2026-04-30 19:30 53.33294 8.19635 26819 ft 431 kts 279°
2026-04-30 19:31 53.34257 8.10171 29042 ft 407 kts 276°
2026-04-30 19:31 53.34377 8.05387 29514 ft 411 kts 274°
2026-04-30 19:31 53.34599 7.95687 30622 ft 415 kts 274°
2026-04-30 19:32 53.34713 7.90820 31168 ft 416 kts 274°
2026-04-30 19:32 53.34832 7.86034 31695 ft 417 kts 273°
2026-04-30 19:32 53.34472 7.81160 32162 ft 422 kts 255°
2026-04-30 19:32 53.33327 7.76674 32625 ft 425 kts 245°
2026-04-30 19:33 53.32030 7.72230 33145 ft 425 kts 245°
2026-04-30 19:33 53.30728 7.67790 33658 ft 425 kts 245°
2026-04-30 19:33 53.29424 7.63360 34159 ft 425 kts 245°
2026-04-30 19:33 53.28118 7.58937 34650 ft 425 kts 245°
2026-04-30 19:34 53.26806 7.54501 35157 ft 425 kts 245°
2026-04-30 19:34 53.25502 7.50102 35659 ft 425 kts 245°
2026-04-30 19:34 53.22885 7.41292 36603 ft 424 kts 245°
2026-04-30 19:35 53.21581 7.36920 37045 ft 424 kts 245°
2026-04-30 19:35 53.20261 7.32497 37474 ft 424 kts 244°
2026-04-30 19:35 53.18942 7.28089 37878 ft 423 kts 244°
2026-04-30 19:35 53.17640 7.23745 38259 ft 423 kts 244°
2026-04-30 19:36 53.16315 7.19330 38626 ft 423 kts 244°
2026-04-30 19:36 53.15002 7.14967 38972 ft 423 kts 244°
2026-04-30 19:36 53.12375 7.06259 39609 ft 423 kts 244°
2026-04-30 19:37 53.11053 7.01886 39895 ft 424 kts 244°
2026-04-30 19:37 53.09720 6.97486 40164 ft 424 kts 244°
2026-04-30 19:37 53.08390 6.93102 40400 ft 425 kts 244°
2026-04-30 19:37 53.07046 6.88683 40367 ft 432 kts 244°
2026-04-30 19:38 53.04301 6.79685 40384 ft 444 kts 244°
2026-04-30 19:38 53.01483 6.70479 40387 ft 454 kts 243°
2026-04-30 19:39 52.98600 6.61097 40389 ft 462 kts 243°
2026-04-30 19:39 52.95656 6.51553 40389 ft 468 kts 243°
2026-04-30 19:40 52.92686 6.41969 40390 ft 473 kts 243°
2026-04-30 19:40 52.89655 6.32219 40385 ft 477 kts 242°
2026-04-30 19:41 52.86618 6.22495 40381 ft 479 kts 242°
2026-04-30 19:41 52.83546 6.12693 40363 ft 481 kts 242°
2026-04-30 19:42 52.80466 6.02911 40352 ft 482 kts 242°
2026-04-30 19:42 52.77361 5.93082 40351 ft 482 kts 242°
2026-04-30 19:43 52.74240 5.83248 40348 ft 483 kts 242°
2026-04-30 19:44 52.69572 5.68610 40348 ft 483 kts 242°
2026-04-30 19:44 52.66457 5.58892 40351 ft 483 kts 242°
2026-04-30 19:45 52.63316 5.49131 40351 ft 483 kts 242°
2026-04-30 19:45 52.60171 5.39397 40347 ft 483 kts 242°
2026-04-30 19:46 52.57014 5.29664 40339 ft 483 kts 241°
2026-04-30 19:46 52.53866 5.19996 40333 ft 483 kts 240°
2026-04-30 19:47 52.50695 5.10296 40329 ft 482 kts 240°
2026-04-30 19:47 52.47512 5.00598 40326 ft 482 kts 240°
2026-04-30 19:48 52.44349 4.91001 40323 ft 482 kts 240°
2026-04-30 19:48 52.41151 4.81332 40322 ft 481 kts 240°
2026-04-30 19:49 52.37940 4.71662 40319 ft 481 kts 240°
2026-04-30 19:49 52.33161 4.57343 40310 ft 481 kts 240°
2026-04-30 19:50 52.29936 4.47728 40311 ft 481 kts 240°
2026-04-30 19:50 52.26734 4.38217 40312 ft 480 kts 240°
2026-04-30 19:51 52.23504 4.28654 40303 ft 480 kts 239°
2026-04-30 19:51 52.20281 4.19151 40300 ft 480 kts 239°
2026-04-30 19:52 52.17049 4.09662 40304 ft 480 kts 239°
2026-04-30 19:52 52.13814 4.00195 40299 ft 480 kts 239°
2026-04-30 19:53 52.10564 3.90724 40303 ft 479 kts 239°
2026-04-30 19:53 52.07317 3.81298 40255 ft 479 kts 239°
2026-04-30 19:54 52.04063 3.71883 40282 ft 479 kts 239°
2026-04-30 19:54 52.00800 3.62479 40284 ft 479 kts 239°
2026-04-30 19:55 51.97507 3.53027 40275 ft 479 kts 239°
2026-04-30 19:55 51.94276 3.43784 40272 ft 479 kts 239°
2026-04-30 19:56 51.90972 3.34368 40278 ft 479 kts 238°
2026-04-30 19:56 51.87684 3.25035 40278 ft 478 kts 238°
2026-04-30 19:57 51.84714 3.15650 40260 ft 466 kts 252°
2026-04-30 19:57 51.84217 3.10548 40305 ft 459 kts 266°
2026-04-30 19:57 51.84076 3.05378 40278 ft 456 kts 264°
2026-04-30 19:58 51.83483 2.95221 40264 ft 457 kts 263°
2026-04-30 19:58 51.82818 2.85020 40261 ft 458 kts 263°
2026-04-30 19:59 51.82133 2.74807 40263 ft 458 kts 263°
2026-04-30 20:00 51.81089 2.59513 40254 ft 458 kts 262°
2026-04-30 20:00 51.80737 2.54434 40053 ft 451 kts 262°
2026-04-30 20:00 51.80390 2.49453 39105 ft 452 kts 262°
2026-04-30 20:00 51.80035 2.44403 37980 ft 456 kts 262°
2026-04-30 20:01 51.79313 2.34207 35939 ft 463 kts 261°
2026-04-30 20:01 51.78944 2.29038 35024 ft 467 kts 261°
2026-04-30 20:01 51.78567 2.23822 34017 ft 470 kts 261°
2026-04-30 20:02 51.77940 2.13425 32005 ft 473 kts 262°
2026-04-30 20:02 51.77632 2.08166 30952 ft 474 kts 262°
2026-04-30 20:03 51.76998 1.97544 28598 ft 480 kts 262°
2026-04-30 20:03 51.76678 1.92222 27394 ft 483 kts 262°
2026-04-30 20:03 51.76350 1.86832 26115 ft 486 kts 262°
2026-04-30 20:03 51.76022 1.81471 24842 ft 487 kts 262°
2026-04-30 20:04 51.75705 1.76209 23872 ft 455 kts 263°
2026-04-30 20:04 51.75510 1.71339 24391 ft 426 kts 268°
2026-04-30 20:04 51.75367 1.66643 24272 ft 422 kts 258°
2026-04-30 20:05 51.74544 1.57210 23743 ft 423 kts 261°
2026-04-30 20:05 51.74243 1.52767 25148 ft 377 kts 262°